Погода в Лавсе

Россия / Рязанская область     55°12′02″N   41°10′31″E
темп.,
°C
ветер,
м/с
пор.,
м/с
влажн.,
%
обл.,
%
осадки,
мм/ч
давл.,
гПа
погр.,
м
20 мая, пт
пт2000:00+4сз25955 0.0 1013107
03:00+1ссз39941 0.0 1014227
06:00+3ссз411815 0.0 1015481
09:00+6с576531 0.0 10171224
12:00+8ссв45558 0.1 10171259
15:00+11ссз4634100 0.1 10162672
18:00+10ссз354339 0.0 10152106
21:00+4с26736 0.0 101687
21 мая, сб
сб2100:00+2с22795 0.0 101639
03:00+1ссз22845 0.0 101518
06:00+4ссз23715 0.0 1015146
09:00+9ссз34475 0.0 10141435
12:00+12ссз343777 0.0 10122144
15:00+13с3434100 0.0 10102417
18:00+12ссв334499 0.0 10091512
21:00+6всв2468100 0.0 100980
22 мая, вс
вс2200:00+4в247497 0.0 100873
03:00+2всв238096 0.0 100751
06:00+4всв256911 0.0 1005174
09:00+10св444524 0.0 10031526
12:00+11св4437100 0.0 10022287
15:00+12ссв4535100 0.0 10022280
18:00+10ссв464832 0.0 10021767
21:00+4с25746 0.0 100385
23 мая, пн
пн2300:00+2ссз26805 0.0 1003100
03:00+1ссз278675 0.0 1003149
06:00+4сз397145 0.0 1004376
09:00+9ссз5849100 0.0 10031710
12:00+10сз5845100 0.0 10031968
15:00+13сз693699 0.0 10022489
18:00+11ссз5948100 0.0 10031928
21:00+7сз41153100 0.0 1004708
24 мая, вт
вт2400:00+4зсз396371 0.0 1005253
03:00+4зсз31062100 0.0 1006381
06:00+5сз3862100 0.0 1006615
09:00+8сз595298 0.0 10061482
12:00+8ссз5859100 0.1 10081543
15:00+8ссз5763100 0.2 10091337
18:00+7ссз4766100 0.1 10111179
21:00+5ссз377476 0.1 1013712